TimeMST,TemperatureF,Dew PointF,Humidity,Sea Level PressureIn,VisibilityMPH,Wind Direction,Wind SpeedMPH,Gust SpeedMPH,PrecipitationIn,Events,Conditions,WindDirDegrees,DateUTC
12:08 AM,23.0,23.0,100,29.94,0.2,SW,21.9,38.0,0.02,Snow,Heavy Snow,220,2013-11-05 07:08:00
12:28 AM,23.0,23.0,100,29.93,0.2,SW,19.6,-,0.05,Snow,Heavy Snow,220,2013-11-05 07:28:00
12:48 AM,23.0,21.2,93,29.93,0.2,SSW,23.0,31.1,0.08,Snow-Thunderstorm,Heavy Thunderstorms and Snow,210,2013-11-05 07:48:00
1:08 AM,21.2,21.2,100,29.92,0.2,North,-9999.0,-,0.02,Snow,Heavy Snow,0,2013-11-05 08:08:00
1:28 AM,21.2,21.2,100,29.92,0.5,North,-9999.0,-,0.04,Snow,Heavy Snow,0,2013-11-05 08:28:00
1:48 AM,21.2,21.2,100,29.92,0.5,North,-9999.0,-,0.06,Snow,Snow,0,2013-11-05 08:48:00
2:08 AM,21.2,21.2,100,29.92,0.5,North,-9999.0,-,N/A,Snow,Snow,0,2013-11-05 09:08:00
2:28 AM,21.2,21.2,100,29.92,0.5,North,-9999.0,-,0.01,Snow,Snow,0,2013-11-05 09:28:00
2:48 AM,21.2,21.2,100,29.92,0.5,North,-9999.0,-,0.01,Snow,Light Snow,0,2013-11-05 09:48:00
3:08 AM,21.2,21.2,100,29.92,0.2,SSW,9.2,24.2,N/A,Snow,Light Snow,210,2013-11-05 10:08:00
3:28 AM,21.2,21.2,100,29.91,0.2,North,-9999.0,-,N/A,Snow,Heavy Snow,0,2013-11-05 10:28:00
3:48 AM,21.2,21.2,100,29.91,0.5,SW,16.1,23.0,0.01,Snow,Heavy Snow,230,2013-11-05 10:48:00
4:08 AM,21.2,21.2,100,29.92,0.2,SW,17.3,25.3,0.01,Snow,Heavy Snow,220,2013-11-05 11:08:00
4:28 AM,21.2,19.4,93,29.92,0.2,SW,15.0,28.8,0.03,Snow,Snow,220,2013-11-05 11:28:00
4:48 AM,21.2,19.4,93,29.92,0.2,North,-9999.0,-,0.04,Snow,Snow,0,2013-11-05 11:48:00
5:08 AM,19.4,19.4,100,29.93,0.2,SSW,18.4,-,0.01,Snow,Snow,210,2013-11-05 12:08:00
5:28 AM,19.4,19.4,100,29.94,0.2,SW,15.0,-,0.04,Snow,Heavy Snow,220,2013-11-05 12:28:00
5:48 AM,19.4,19.4,100,29.94,0.2,SW,16.1,-,0.05,Snow,Heavy Snow,220,2013-11-05 12:48:00
6:08 AM,19.4,19.4,100,29.94,0.2,North,-9999.0,-,N/A,Snow,Heavy Snow,0,2013-11-05 13:08:00
6:28 AM,19.4,17.6,93,29.94,0.2,SW,18.4,-,0.01,Snow,Heavy Snow,220,2013-11-05 13:28:00
6:48 AM,19.4,17.6,93,29.96,0.2,North,-9999.0,-,0.03,Snow,Heavy Snow,0,2013-11-05 13:48:00
7:08 AM,19.4,17.6,93,29.96,0.2,SW,18.4,-,N/A,Snow,Heavy Snow,220,2013-11-05 14:08:00
7:28 AM,17.6,17.6,100,29.96,0.2,North,-9999.0,-,0.01,Snow,Heavy Snow,0,2013-11-05 14:28:00
7:48 AM,17.6,17.6,100,29.96,0.2,North,-9999.0,-,0.01,Snow,Heavy Snow,0,2013-11-05 14:48:00
8:08 AM,17.6,17.6,100,29.97,0.2,SSW,13.8,-,N/A,Snow,Light Snow,210,2013-11-05 15:08:00
8:28 AM,17.6,17.6,100,29.98,0.2,SW,19.6,28.8,N/A,Snow,Light Snow,230,2013-11-05 15:28:00
8:48 AM,17.6,17.6,100,29.98,0.2,SW,19.6,-,N/A,Snow,Heavy Snow,230,2013-11-05 15:48:00
9:08 AM,17.6,17.6,100,29.97,0.2,SSW,18.4,39.1,N/A,Snow,Light Snow,210,2013-11-05 16:08:00
9:28 AM,17.6,17.6,100,29.96,0.2,SW,25.3,42.6,N/A,Snow,Heavy Snow,220,2013-11-05 16:28:00
9:48 AM,17.6,15.8,93,29.95,0.2,SW,32.2,46.0,0.01,Snow,Light Snow,230,2013-11-05 16:48:00
10:08 AM,17.6,15.8,93,29.97,0.2,SW,27.6,43.7,N/A,Snow,Light Snow,230,2013-11-05 17:08:00
10:28 AM,17.6,15.8,93,29.98,0.2,SW,29.9,42.6,N/A,Fog,Light Freezing Fog,230,2013-11-05 17:28:00
10:48 AM,17.6,14.0,86,29.98,0.5,SW,32.2,43.7,N/A,Snow,Light Snow,230,2013-11-05 17:48:00
11:08 AM,15.8,14.0,93,29.99,0.5,SW,23.0,46.0,N/A,Snow,Light Snow,220,2013-11-05 18:08:00
11:28 AM,15.8,14.0,93,29.99,0.8,SW,24.2,43.7,N/A,Snow,Light Snow,220,2013-11-05 18:28:00
11:48 AM,15.8,14.0,93,29.99,2.0,SW,29.9,40.3,N/A,,Overcast,230,2013-11-05 18:48:00
12:08 PM,15.8,14.0,93,29.99,0.2,SSW,24.2,35.7,N/A,Snow,Light Snow,210,2013-11-05 19:08:00
12:28 PM,15.8,14.0,93,29.99,0.2,SW,15.0,28.8,N/A,Snow,Snow,230,2013-11-05 19:28:00
12:48 PM,15.8,14.0,93,29.99,0.5,SW,15.0,29.9,N/A,Snow,Light Snow,220,2013-11-05 19:48:00
1:08 PM,15.8,14.0,93,29.99,0.5,SW,15.0,28.8,N/A,Snow,Light Snow,230,2013-11-05 20:08:00
1:28 PM,15.8,14.0,93,30.00,0.2,SW,11.5,18.4,N/A,Snow,Snow,230,2013-11-05 20:28:00
1:48 PM,15.8,14.0,93,29.99,0.5,SW,18.4,23.0,0.01,Snow,Snow,230,2013-11-05 20:48:00
2:08 PM,14.0,14.0,100,30.00,0.2,SW,13.8,25.3,N/A,Snow,Snow,220,2013-11-05 21:08:00
2:28 PM,14.0,14.0,100,30.01,0.2,SW,17.3,26.5,0.01,Snow,Snow,220,2013-11-05 21:28:00
2:48 PM,14.0,14.0,100,30.02,0.2,SSW,16.1,21.9,0.01,Snow,Snow,210,2013-11-05 21:48:00
3:08 PM,14.0,14.0,100,30.02,0.5,SSW,12.7,25.3,N/A,Snow,Snow,210,2013-11-05 22:08:00
3:28 PM,14.0,14.0,100,30.03,0.2,SSW,10.4,19.6,0.01,Snow,Snow,210,2013-11-05 22:28:00
3:48 PM,14.0,12.2,93,30.05,0.2,SSW,8.1,18.4,0.01,Snow,Snow,210,2013-11-05 22:48:00
4:08 PM,14.0,12.2,93,30.07,0.5,SW,8.1,-,N/A,Snow,Snow,220,2013-11-05 23:08:00
4:28 PM,14.0,12.2,93,30.07,0.2,WNW,5.8,-,0.02,Snow,Snow,290,2013-11-05 23:28:00
4:48 PM,14.0,12.2,93,30.08,0.2,West,8.1,-,0.03,Snow,Snow,260,2013-11-05 23:48:00
5:08 PM,12.2,10.4,92,30.09,10.0,SW,10.4,-,N/A,Snow,Light Snow,230,2013-11-06 00:08:00
5:28 PM,12.2,10.4,92,30.09,7.0,SW,10.4,-,N/A,,Overcast,230,2013-11-06 00:28:00
5:48 PM,10.4,8.6,92,30.10,10.0,WSW,10.4,-,N/A,,Scattered Clouds,250,2013-11-06 00:48:00
6:08 PM,10.4,8.6,92,30.11,5.0,WSW,13.8,-,N/A,,Scattered Clouds,240,2013-11-06 01:08:00
6:28 PM,12.2,10.4,92,30.12,4.0,SW,13.8,-,N/A,,Mostly Cloudy,230,2013-11-06 01:28:00
6:48 PM,12.2,10.4,92,30.13,10.0,SW,12.7,-,N/A,,Overcast,230,2013-11-06 01:48:00
7:08 PM,12.2,10.4,92,30.14,10.0,WSW,8.1,-,N/A,,Overcast,240,2013-11-06 02:08:00
7:28 PM,10.4,8.6,92,30.15,10.0,SW,9.2,-,N/A,,Overcast,230,2013-11-06 02:28:00
7:48 PM,8.6,6.8,92,30.15,10.0,WNW,3.5,-,N/A,,Scattered Clouds,290,2013-11-06 02:48:00
8:08 PM,5.0,1.4,85,30.14,10.0,West,6.9,-,N/A,,Clear,270,2013-11-06 03:08:00
8:28 PM,3.2,1.4,92,30.15,10.0,West,5.8,-,N/A,,Clear,270,2013-11-06 03:28:00
8:48 PM,3.2,1.4,92,30.15,10.0,NE,6.9,-,N/A,,Clear,40,2013-11-06 03:48:00
9:08 PM,3.2,1.4,92,30.16,10.0,NE,4.6,-,N/A,,Clear,50,2013-11-06 04:08:00
9:28 PM,3.2,1.4,92,30.17,10.0,North,6.9,-,N/A,,Clear,360,2013-11-06 04:28:00
9:48 PM,5.0,1.4,85,30.17,10.0,North,8.1,-,N/A,,Clear,350,2013-11-06 04:48:00
10:08 PM,5.0,-0.4,78,30.19,10.0,NNW,6.9,-,N/A,,Clear,340,2013-11-06 05:08:00
10:28 PM,8.6,-7.6,48,30.19,10.0,North,3.5,-,N/A,,Clear,360,2013-11-06 05:28:00
10:48 PM,8.6,-9.4,44,30.19,10.0,NW,4.6,-,N/A,,Clear,310,2013-11-06 05:48:00
11:08 PM,8.6,-11.2,40,30.20,10.0,NW,6.9,-,N/A,,Clear,310,2013-11-06 06:08:00
11:28 PM,8.6,-13.0,37,30.20,10.0,NW,6.9,-,N/A,,Clear,320,2013-11-06 06:28:00
11:48 PM,8.6,-14.8,34,30.21,10.0,NNW,8.1,-,N/A,,Clear,340,2013-11-06 06:48:00